Retour au catalogue

GGSE 2

ActifNavigationLEO
NORAD 1244·PAYLOAD·🇺🇸 United States

Lancé Mar 9, 1965 depuis Vandenberg Space Force Base

Loading…

Prochains Passages (prochaines 24 heures)

TLE

FraisSource: Space-Track

Époque: Sep 14, 2026, 06:17 UTC

1 01244U 65016B   26257.26212494  .00000024  00000-0  55346-4 0  9994
2 01244  70.0821 356.5680 0022462 325.6335  34.3318 13.96172421130492

Suivez GGSE 2 en temps réel avec AllMySat

Download on the App Store